"TOA5","AWS1","CR1000","7964","CR1000.Std.14","CPU:AWS1_114.CR1","64363","TBL110"
"TIMESTAMP","RECORD","Wind_spd_WVc(1)","Wind_spd_WVc(2)","Air_Temp_Avg","Humidity_Avg","SW_upper_Wm2_Avg","Rain_Tot","Press_Avg","Issui_Tot","Depth_cm","SR50A_Raw","Quality","Ground_Temp_Avg(1)","Ground_Temp_Avg(2)","SW_lower_Wm2_Avg","Albedo_Avg","SWC_per(1)","SWC_per(2)","Period(1)","Period(2)"
"TS","RN","","","","","","","","","","","","","","","","","","",""
"","","WVc","WVc","Avg","Avg","Avg","Tot","Avg","Tot","Smp","Smp","Smp","Avg","Avg","Avg","Avg","Smp","Smp","Smp","Smp"
"2016-01-23 00:00:00",219229,0.194,125.7,-10.81,79.9,0,0,865.9176,0,44.28,2.793,192,1.764,2.502,0.106216,0,51.33,59.26,33.62,35.51
"2016-01-23 00:10:00",219230,0.37,44.8,-10.71,78.86,0,0,865.9153,0,44.77,2.788,194,1.762,2.504,0.09328099,0,51.33,59.26,33.62,35.51
"2016-01-23 00:20:00",219231,0.268,61.86,-10.9,78.77,0,0,865.6266,0,44.13,2.8,192,1.769,2.5,0.003793427,0,51.33,59.26,33.62,35.51
"2016-01-23 00:30:00",219232,0.628,20.83,-11.15,80.5,0,0,865.3778,0,44.64,2.787,193,1.787,2.478,0.3565821,0,51.33,59.26,33.62,35.51
"2016-01-23 00:40:00",219233,0.493,351.3,-9.44,65.69,0,0,865.1522,0,44.49,2.779,189,1.757,2.488,1.153202,0,51.33,59.26,33.62,35.51
"2016-01-23 00:50:00",219234,0.406,10.01,-8.99,61.78,0,0,865.1205,
"2016-01-23 00:50:00",219234,0.406,10.01,-8.99,61.78,0,0,865.1205,0,44.27,2.786,192,1.761,2.491,0.9255962,0,51.33,59.26,33.62,35.51
"2016-01-23 01:00:00",219235,0.322,21.4,-9.98,69.49,0,0,864.9688,0,44.29,2.795,187,1.761,2.486,0.2807136,0,51.33,59.26,33.62,35.51
"2016-01-23 01:10:00",219236,0.12,239.4,-11.24,78.05,0,0,865.1522,0,43.71,2.797,188,1.764,2.498,0.01517371,0,51.33,59.26,33.62,35.51
"2016-01-23 01:20:00",219237,0.186,59.77,-10.85,74.75,0,0,865.1121,0,44.31,2.795,193,1.765,2.488,0.06448826,0,51.33,59.26,33.62,35.51
"2016-01-23 01:30:00",219238,0.321,349.4,-10.17,71.14,0,0,865.2197,0,44.25,2.786,186,1.767,2.488,0.8990422,0,51.27,59.26,33.61,35.51
"2016-01-23 01:40:00",219239,0.459,19.75,-9.47,65.88,0,0,865.1817,0,44.16,2.786,193,1.759,2.496,1.092507,0,51.33,59.26,33.62,35.51
"2016-01-23 01:50:00",219240,0.211,342,-9.8,70.97,0,0,865.3019,0,44.36,2.789,189,1.763,2.497,0.2010516,0,51.33,59.26,33.62,35.51
"2016-01-23 02:00:00",219241,0.418,346.6,-10.1,72.31,0,0,865.2556,0,44.44,2.785,188,1.761,2.495,0.2920939,0,51.27,59.26,33.61,35.51
"2016-01-23 02:10:00",219242,0.324,55.39,-9.79,69.31,0,0,865.148,0,43.9,2.796,189,1.761,2.48,0.4665915,0,51.33,59.26,33.62,35.51
"2016-01-23 02:20:00",219243,0.03,161.5,-10.85,76.47,0,0,864.8865,0,44.28,2.793,177,1.761,2.502,0,0,51.33,59.26,33.62,35.51
"2016-01-23 02:30:00",219244,0.028,246.6,-10.63,75.45,0,0,864.8422,0,44.1,2.793,184,1.77,2.505,0,0,51.33,59.26,33.62,35.51
"2016-01-23 02:40:00",219245,0.008,15.53,-10.16,72.1,0,0,864.8929,0,43.97,2.793,187,1.764,2.492,0.3983098,0,51.33,59.26,33.62,35.51
"2016-01-23 02:50:00",219246,0.012,343.7,-10.88,77.02,0,0,864.8739,0,44.25,2.797,176,1.747,2.442,0.2124319,0,51.33,59.26,33.62,35.51
"2016-01-23 03:00:00",219247,0.056,68.27,-11.5,81.1,0,0,864.8233,0,43.85,2.802,170,1.761,2.476,0,0,51.33,59.26,33.62,35.51
"2016-01-23 03:10:00",219248,0,0,-11.84,82.6,0,0,864.8992,0,44.34,2.797,177,1.767,2.501,0,0,51.33,59.26,33.62,35.51
"2016-01-23 03:20:00",219249,0.002,76.41,-11.63,82.9,0,0,864.7116,0,44.04,2.801,172,1.768,2.501,0.07207511,0,51.33,59.26,33.62,35.51
"2016-01-23 03:30:00",219250,0.005,329.7,-11.51,83.3,0,0,864.7537,0,44.18,2.794,171,1.781,2.485,0.1403568,0,51.33,59.26,33.62,35.51
"2016-01-23 03:40:00",219251,0.034,12.93,-11.03,79.41,0,0,864.8907,0,43.9,2.801,172,1.781,2.475,0.3148544,0,51.33,59.26,33.62,35.51
"2016-01-23 03:50:00",219252,0.401,165.9,-11.51,82.4,0,0,864.6462,0,44.15,2.798,172,1.769,2.501,0.2162253,0,51.33,59.26,33.62,35.51
"2016-01-23 04:00:00",219253,0.341,38.64,-11.12,81.8,0,0,864.5365,0,44.14,2.794,172,1.754,2.47,0.8042066,0,51.27,59.26,33.61,35.51
"2016-01-23 04:10:00",219254,0.102,1.301,-10.55,79.51,0,0,864.5007,0,43.85,2.796,172,1.754,2.452,1.0963,0,51.33,59.26,33.62,35.51
"2016-01-23 04:20:00",219255,0,0,-10.58,80.4,0,0,864.4944,0,43.84,2.797,171,1.759,2.482,0.3603756,0,51.33,59.26,33.62,35.51
"2016-01-23 04:30:00",219256,0.019,285.7,-10.83,81.9,0,0,864.3721,0,44.08,2.795,171,1.761,2.471,0.2238122,0,51.33,59.26,33.62,35.51
"2016-01-23 04:40:00",219257,0.008,285.7,-10.7,80.6,0,0,864.3763,0,43.79,2.798,171,1.761,2.463,0.3527887,0,51.27,59.26,33.61,35.51
"2016-01-23 04:50:00",219258,0.036,296.1,-10.54,78.61,0,0,864.3573,0,43.49,2.799,171,1.761,2.482,0.6410891,0,51.33,59.26,33.62,35.51
"2016-01-23 05:00:00",219259,0.049,40.5,-10.85,81.1,0,0,864.3889,0,43.91,2.797,171,1.761,2.465,0.2351925,0,51.33,59.26,33.62,35.51
"2016-01-23 05:10:00",219260,0.422,314.3,-10.7,81.2,0,0,864.3278,0,43.85,2.796,170,1.761,2.459,0.5386666,0,51.33,59.26,33.62,35.51
"2016-01-23 05:20:00",219261,0.507,9.9,-10.72,82.3,0,0,864.157,0,43.71,2.797,171,1.761,2.454,0.364169,0,51.33,59.26,33.62,35.51
"2016-01-23 05:30:00",219262,0.45,168.1,-10.52,82.1,0,0,864.0664,0,43.65,2.799,170,1.761,2.454,0.2655399,0,51.33,59.26,33.62,35.51
"2016-01-23 05:40:00",219263,0.299,205.2,-10.66,81.4,0,0,864.1191,0,43.77,2.795,170,1.761,2.454,0.204845,0,51.33,59.26,33.62,35.51
"2016-01-23 05:50:00",219264,0.187,83.4,-10.45,80.3,0,0,863.9989,0,43.5,2.801,170,1.761,2.453,0.3489953,0,51.33,59.26,33.62,35.51
"2016-01-23 06:00:00",219265,0.279,146.3,-10.77,83.2,0,0,863.8007,0,43.63,2.798,171,1.761,2.453,0.1669108,0,51.33,59.26,33.62,35.51
"2016-01-23 06:10:00",219266,0.145,357.2,-10.4,80.6,0,0,863.6805,0,43.72,2.795,170,1.761,2.453,0.4362441,0,51.33,59.26,33.62,35.51
"2016-01-23 06:20:00",219267,0.075,105.8,-10.34,80.2,0,0,863.6467,0,43.65,2.799,172,1.761,2.453,0.3338216,0,51.33,59.26,33.62,35.51
"2016-01-23 06:30:00",219268,0.326,272.5,-10.33,81.4,0,0,863.6236,0,43.58,2.796,170,1.761,2.453,0.3527887,0,51.33,59.26,33.62,35.51
"2016-01-23 06:40:00",219269,0.524,297.8,-10.22,80.4,0,0,863.7607,0,43.52,2.798,170,1.761,2.453,0.3300281,0,51.27,59.26,33.61,35.51
"2016-01-23 06:50:00",219270,0.046,295.7,-10.31,82.5,0,0,863.9251,0,43.34,2.801,172,1.761,2.453,0.2276056,0,51.27,59.26,33.61,35.51
"2016-01-23 07:00:00",219271,0,0,-10.44,83.9,0.04327745,0,863.942,0,43.48,2.798,170,1.761,2.453,1.065953,1.286,51.33,59.26,33.62,35.51
"2016-01-23 07:10:00",219272,0.22,174.1,-10.19,81.6,0.1416353,0,863.8577,0,43.42,2.799,171,1.761,2.453,3.842741,11.18,51.33,59.26,33.62,35.51
"2016-01-23 07:20:00",219273,0.944,186.9,-10.15,82.2,0.3226137,0,863.6341,0,43.54,2.796,170,1.761,2.453,7.366835,19.7,51.33,59.26,33.62,35.51
"2016-01-23 07:30:00",219274,0.585,185.1,-9.68,78.52,0.4013,0,863.5604,0,43.41,2.795,170,1.761,2.453,11.78618,37.29,51.33,59.26,33.62,35.51
"2016-01-23 07:40:00",219275,0.059,264.6,-9.01,74.44,0.7081764,0,863.4086,0,43.46,2.789,171,1.755,2.453,14.07741,20.64,51.33,59.26,33.62,35.51
"2016-01-23 07:50:00",219276,0.294,307.9,-8.26,72.25,1.534382,0,863.3938,0,43.26,2.789,170,1.732,2.452,23.01472,16.81,51.33,59.26,33.62,35.51
"2016-01-23 08:00:00",219277,0.021,288.1,-8.23,74.66,2.336982,0,863.5814,0,43.24,2.791,170,1.718,2.425,26.05326,11.32,51.27,59.26,33.61,35.51
"2016-01-23 08:10:00",219278,0.045,254.6,-8.02,71.98,3.910708,0,863.3601,0,43.18,2.786,170,1.714,2.413,33.40492,8.57,51.33,59.26,33.62,35.51
"2016-01-23 08:20:00",219279,0.196,110.6,-7.464,72.09,4.921725,0,863.3432,0,43.56,2.781,170,1.674,2.405,41.52202,8.49,51.27,59.26,33.61,35.51
"2016-01-23 08:30:00",219280,0.056,199.5,-6.008,67.55,6.286768,0,863.1795,0,43.02,2.778,170,1.684,2.384,56.49313,8.99,51.33,59.26,33.62,35.51
"2016-01-23 08:40:00",219281,0.315,88,-6.062,72.77,6.605033,0,863.1927,0,43.26,2.773,170,1.733,2.393,57.44933,8.72,51.27,59.26,33.61,35.51
"2016-01-23 08:50:00",219282,0,0,-4.716,68.53,8.004621,0,863.0823,0,42.76,2.776,170,1.749,2.427,69.496,8.71,51.27,59.26,33.61,35.51
"2016-01-23 09:00:00",219283,0,0,-4.849,73.17,8.106271,0,863.0497,0,42.9,2.776,174,1.704,2.423,67.40483,8.32,51.33,59.26,33.62,35.51
"2016-01-23 09:10:00",219284,0.148,156.1,-4.854,76.04,8.664476,0,862.9438,0,42.93,2.775,169,1.677,2.402,66.58337,7.756,51.27,59.26,33.61,35.51
"2016-01-23 09:20:00",219285,0.188,358.9,-4.522,72.5,10.21005,0,862.9648,0,42.53,2.78,174,1.649,2.37,74.11003,7.273,51.27,59.26,33.61,35.51
"2016-01-23 09:30:00",219286,0.588,324.9,-5.978,81.8,12.95523,0,862.9495,0,43.07,2.783,185,1.679,2.377,74.1894,5.752,51.33,59.26,33.62,35.51
"2016-01-23 09:40:00",219287,0.328,86.5,-6.198,86.3,13.59629,0,862.8546,0,43.07,2.777,174,1.732,2.422,72.57008,5.342,51.33,59.26,33.62,35.51
"2016-01-23 09:50:00",219288,0.5,117.3,-5.267,76.26,15.51951,0,862.7112,0,42.99,2.776,174,1.722,2.422,86.7261,5.589,51.33,59.26,33.62,35.51
"2016-01-23 10:00:00",219289,0.566,125.9,-4.608,68.34,15.80268,0,862.5405,0,43.27,2.769,178,1.717,2.412,94.56065,5.987,51.27,59.26,33.61,35.51
"2016-01-23 10:10:00",219290,0.826,137.7,-3.803,59.85,13.64741,0,862.3508,0,43.15,2.766,191,1.72,2.409,87.44656,6.412,51.33,59.26,33.62,35.51
"2016-01-23 10:20:00",219291,0.925,164.8,-3.33,55.98,12.48285,0,862.2643,0,42.89,2.768,187,1.728,2.4,82.5824,6.628,51.27,59.26,33.61,35.51
"2016-01-23 10:30:00",219292,0.688,135.8,-3.455,58.99,12.02208,0,862.2911,0,42.97,2.769,190,1.723,2.388,75.66943,6.292,51.27,59.26,33.61,35.51
"2016-01-23 10:40:00",219293,0.818,134.8,-3.715,61.08,12.73323,0,862.1694,0,43.14,2.768,190,1.699,2.373,75.59727,5.937,51.33,59.26,33.62,35.51
"2016-01-23 10:50:00",219294,1.353,163.2,-3.64,62.38,14.12798,0,861.9707,0,43.08,2.767,190,1.684,2.352,84.17017,5.958,51.27,59.26,33.61,35.51
"2016-01-23 11:00:00",219295,0.793,184.1,-3.5,64.7,15.54247,0,862.2039,0,42.73,2.771,190,1.669,2.337,93.31971,6.003,51.27,59.26,33.61,35.51
"2016-01-23 11:10:00",219296,1.484,146.8,-4.007,70.54,15.98232,0,862.387,0,42.99,2.772,190,1.68,2.357,86.79642,5.438,51.27,59.26,33.61,35.51
"2016-01-23 11:20:00",219297,1.108,141.3,-4.343,73.92,15.75805,0,862.1768,0,42.89,2.773,192,1.684,2.334,84.39964,5.359,51.27,59.26,33.61,35.51
"2016-01-23 11:30:00",219298,1.15,145.2,-4.227,73.72,16.30055,0,861.736,0,42.9,2.772,190,1.681,2.334,90.97645,5.58,51.33,59.26,33.62,35.51
"2016-01-23 11:40:00",219299,1.059,146.6,-4.033,73.89,22.73662,0,861.4979,0,42.84,2.772,186,1.678,2.358,127.05,5.59,51.33,59.26,33.62,35.51
"2016-01-23 11:50:00",219300,1.266,145.1,-4.018,75.49,25.23713,0,861.0364,0,42.76,2.773,190,1.675,2.39,138.4035,5.484,51.33,59.26,33.62,35.51
"2016-01-23 12:00:00",219301,1.325,158.4,-4.032,77.75,26.3773,0,860.9332,0,42.71,2.773,186,1.685,2.392,143.0018,5.422,51.33,59.26,33.62,35.51
"2016-01-23 12:10:00",219302,1.339,143.9,-3.865,77.73,30.1556,0,860.516,0.5,42.75,2.772,186,1.708,2.375,162.953,5.404,51.33,59.26,33.62,35.51
"2016-01-23 12:20:00",219303,1.055,151.7,-3.591,76.54,32.27868,0,860.4191,0,42.6,2.771,190,1.737,2.363,175.0799,5.423,51.33,59.26,33.62,35.51
"2016-01-23 12:30:00",219304,0.827,134,-3.282,75.69,33.47389,0,860.2253,0,42.56,2.771,190,1.705,2.359,183.3591,5.483,51.33,59.26,33.62,35.51
"2016-01-23 12:40:00",219305,0.701,132.9,-3.226,75.05,26.04704,0,859.9345,0,42.56,2.771,191,1.712,2.337,144.503,5.549,51.33,59.26,33.62,35.51
"2016-01-23 12:50:00",219306,0.6,81.2,-3.215,75.09,23.87285,0,859.9092,0,42.58,2.771,190,1.714,2.325,131.4701,5.511,51.27,59.26,33.61,35.51
"2016-01-23 13:00:00",219307,0.781,109.7,-3.303,77.03,21.50601,0,859.9156,0,42.46,2.772,190,1.714,2.328,115.6926,5.383,51.27,59.26,33.61,35.51
"2016-01-23 13:10:00",219308,0.471,53.92,-3.259,78.4,24.80072,0,859.8965,0,42.47,2.771,190,1.714,2.353,133.809,5.391,51.27,59.26,33.61,35.51
"2016-01-23 13:20:00",219309,0.618,135.6,-3.245,80.1,24.69456,0,859.6669,0,42.45,2.773,189,1.714,2.403,132.2775,5.35,51.33,59.26,33.62,35.51
"2016-01-23 13:30:00",219310,0.598,99.1,-3.406,82.9,19.839,0,859.4815,0,42.42,2.774,190,1.713,2.406,103.8045,5.241,51.27,59.26,33.61,35.51
"2016-01-23 13:40:00",219311,0.512,105,-3.571,83.6,22.01319,0,859.2645,0,42.37,2.774,192,1.714,2.406,113.8806,5.175,51.27,59.26,33.61,35.51
"2016-01-23 13:50:00",219312,0.679,100,-3.592,85.4,19.21766,0,859.1423,0,42.39,2.775,192,1.712,2.404,99.668,5.183,51.33,59.26,33.62,35.51
"2016-01-23 14:00:00",219313,0.329,31.81,-3.658,88,14.52677,0,858.9948,0,42.35,2.775,191,1.701,2.392,77.18205,5.336,51.27,59.26,33.61,35.51
"2016-01-23 14:10:00",219314,0.177,73.23,-3.704,90.9,10.9642,0,858.9001,0,42.44,2.775,189,1.686,2.373,60.1242,5.508,51.33,59.26,33.62,35.51
"2016-01-23 14:20:00",219315,0.173,348.7,-4.051,93.1,9.269688,0,858.9257,0,42.61,2.776,192,1.683,2.366,46.9099,5.023,51.27,59.26,33.61,35.51
"2016-01-23 14:30:00",219316,0.219,1.324,-4.569,97.3,7.830743,0,858.877,0,42.63,2.776,190,1.679,2.325,34.68904,4.422,51.27,59.26,33.61,35.51
"2016-01-23 14:40:00",219317,0.194,34.11,-4.446,99.5,8.436031,0,858.9016,0,42.53,2.777,192,1.676,2.329,39.70318,4.705,51.33,59.26,33.62,35.51
"2016-01-23 14:50:00",219318,0.23,38.06,-4.507,98.7,6.714471,0,859.0043,0,42.64,2.777,191,1.685,2.336,31.34673,4.671,51.33,59.26,33.62,35.51
"2016-01-23 15:00:00",219319,0.336,25.19,-4.696,98.9,7.05284,0,858.9197,0,42.68,2.777,189,1.694,2.344,31.92038,4.517,51.33,59.26,33.62,35.51
"2016-01-23 15:10:00",219320,0.335,43.2,-4.786,98.9,8.267539,0,858.8959,0,42.77,2.777,192,1.709,2.341,38.86428,4.689,51.33,59.26,33.62,35.51
"2016-01-23 15:20:00",219321,0.217,24.1,-4.826,98.6,6.588945,0,858.8802,0,42.72,2.777,191,1.721,2.345,32.70126,4.968,51.33,59.26,33.62,35.51
"2016-01-23 15:30:00",219322,0.188,64.35,-4.801,97.8,6.455399,0,858.8798,0,42.72,2.777,192,1.725,2.356,31.98922,4.949,51.33,59.26,33.62,35.51
"2016-01-23 15:40:00",219323,0.19,63.21,-4.809,97.1,4.847555,0,858.7679,0,42.71,2.778,189,1.733,2.378,21.78909,4.492,51.27,59.26,33.61,35.51
"2016-01-23 15:50:00",219324,0.56,96.8,-4.906,96.6,5.150371,0,858.5372,0,42.75,2.778,189,1.742,2.392,23.38918,4.518,51.33,59.26,33.62,35.51
"2016-01-23 16:00:00",219325,0.456,108.5,-4.907,96,4.521355,0,858.4721,0,42.73,2.778,190,1.709,2.4,20.37946,4.504,51.33,59.26,33.62,35.51
"2016-01-23 16:10:00",219326,0.553,89.7,-4.954,95.6,3.019486,0,858.409,0,42.65,2.779,189,1.674,2.403,13.25654,4.377,51.33,59.26,33.62,35.51
"2016-01-23 16:20:00",219327,0.626,75.38,-4.994,96.1,2.90154,0,858.3964,0,42.65,2.779,189,1.691,2.401,13.321,4.593,51.33,59.26,33.62,35.51
"2016-01-23 16:30:00",219328,0.552,110.6,-4.991,95.4,2.052309,0,858.39,0,42.65,2.779,189,1.711,2.374,9.336829,4.54,51.33,59.26,33.62,35.51
"2016-01-23 16:40:00",219329,0.739,120.1,-5.037,94.4,1.344616,0,858.3964,0,42.62,2.78,189,1.709,2.384,5.52704,4.047,51.33,59.26,33.62,35.51
"2016-01-23 16:50:00",219330,0.531,110.1,-5.115,93.1,0.8374365,0,858.409,0,42.52,2.781,189,1.709,2.344,3.108486,3.697,51.33,59.26,33.62,35.51
"2016-01-23 17:00:00",219331,0.775,64.47,-5.161,93.3,0.5229064,0,858.4026,0,42.58,2.781,189,1.685,2.33,1.614896,3.163,51.27,59.26,33.61,35.51
"2016-01-23 17:10:00",219332,0.824,38.64,-5.257,93.6,0.2358976,0,858.4047,0,42.51,2.782,189,1.666,2.325,0.4700637,1.993,51.33,59.26,33.62,35.51
"2016-01-23 17:20:00",219333,0.816,116.9,-5.371,93.1,0.2358976,0,858.4617,0,42.47,2.783,189,1.632,2.328,0.1402609,0.595,51.27,59.26,33.61,35.51
"2016-01-23 17:30:00",219334,0.579,98.2,-5.411,92.5,0.2162395,0,858.5375,0,42.45,2.783,189,1.631,2.346,0,0,51.27,59.26,33.61,35.51
"2016-01-23 17:40:00",219335,0.787,117.7,-5.434,92,0.02358976,0,858.4427,0,42.38,2.784,190,1.632,2.359,0,0,51.27,59.26,33.61,35.51
"2016-01-23 17:50:00",219336,1.141,122.6,-5.46,91,0,0,858.4385,0,42.4,2.784,189,1.638,2.357,0,0,51.33,59.26,33.62,35.51
"2016-01-23 18:00:00",219337,0.698,127.6,-5.48,91.3,0,0,858.371,0,42.3,2.785,189,1.643,2.352,0,0,51.27,59.26,33.61,35.51
"2016-01-23 18:10:00",219338,0.648,141.5,-5.486,90.9,0,0,858.3057,0,42.3,2.785,190,1.637,2.356,0,0,51.33,59.26,33.62,35.51
"2016-01-23 18:20:00",219339,0.499,115,-5.481,90,0,0,858.3964,0,42.3,2.785,189,1.634,2.322,0.06823505,0,51.33,59.26,33.62,35.51
"2016-01-23 18:30:00",219340,0.772,137.6,-5.466,89.4,0,0,858.3205,0,42.3,2.785,189,1.622,2.283,0.1554243,0,51.27,59.26,33.61,35.51
"2016-01-23 18:40:00",219341,0.539,141.3,-5.444,88.8,0,0,858.2762,0,42.22,2.786,189,1.616,2.282,0.1895442,0,51.33,59.26,33.62,35.51
"2016-01-23 18:50:00",219342,0.749,142.7,-5.456,89.7,0,0,858.1791,0,42.21,2.786,190,1.642,2.305,0.01516455,0,51.27,59.26,33.61,35.51
"2016-01-23 19:00:00",219343,0.781,133.4,-5.514,91.5,0,0,858.2233,0,41.86,2.79,169,1.644,2.31,0.03791208,0,51.33,59.26,33.62,35.51
"2016-01-23 19:10:00",219344,0.92,135.9,-5.571,93.3,0,0,857.9385,0,41.83,2.79,169,1.648,2.316,0,0,51.27,59.26,33.61,35.51
"2016-01-23 19:20:00",219345,0.901,137.4,-5.534,92.9,0,0,857.8762,0,41.83,2.79,169,1.642,2.327,0.04549691,0,51.33,59.26,33.62,35.51
"2016-01-23 19:30:00",219346,0.493,100.3,-5.478,92,0,0,857.9434,0,41.71,2.791,173,1.642,2.33,0.09857559,0,51.33,59.26,33.62,35.51
"2016-01-23 19:40:00",219347,0.41,80.7,-5.48,92,0,0,857.9373,0,41.75,2.791,174,1.642,2.341,0.02274842,0,51.33,59.26,33.62,35.51
"2016-01-23 19:50:00",219348,0.484,92.2,-5.527,93,0,0,857.9014,0,41.75,2.791,174,1.63,2.328,0,0,51.27,59.26,33.61,35.51
"2016-01-23 20:00:00",219349,0.322,58.78,-5.566,93.1,0,0,857.79,0,41.69,2.792,178,1.635,2.34,0.05308167,0,51.27,59.26,33.61,35.51
"2016-01-23 20:10:00",219350,0.481,97.8,-5.648,92.9,0.1140427,0,857.587,0,41.73,2.792,190,1.643,2.36,0,0,51.33,59.26,33.62,35.51
"2016-01-23 20:20:00",219351,0.146,31.88,-5.717,92.7,0.235958,0,857.4598,0,41.77,2.792,189,1.66,2.383,0,0,51.33,59.26,33.62,35.51
"2016-01-23 20:30:00",219352,0.01,28.23,-5.688,90.9,0.2359601,0,857.3083,0,41.55,2.794,179,1.658,2.379,0,0,51.27,59.26,33.61,35.51
"2016-01-23 20:40:00",219353,0.073,95.2,-5.752,91.4,0.2280919,0,857.1146,0,41.55,2.794,190,1.649,2.378,0,0,51.27,59.26,33.61,35.51
"2016-01-23 20:50:00",219354,0.034,0.057,-5.803,92,0.1101157,0,857.0221,0,41.57,2.794,192,1.658,2.387,0,0,51.27,59.26,33.61,35.51
"2016-01-23 21:00:00",219355,0.128,74.55,-5.888,92.1,0,0,856.7458,0,41.64,2.794,191,1.658,2.387,0,0,51.27,59.26,33.61,35.51
"2016-01-23 21:10:00",219356,0.12,124.2,-5.935,92.6,0,0,856.6715,0,41.56,2.795,189,1.663,2.39,0,0,51.33,59.26,33.62,35.51
"2016-01-23 21:20:00",219357,0,352.6,-5.921,92.6,0,0,856.5681,0,41.57,2.795,190,1.655,2.385,0,0,51.27,59.26,33.61,35.51
"2016-01-23 21:30:00",219358,0.135,97,-6.025,93.1,0,0,856.4669,0,41.52,2.796,189,1.646,2.374,0,0,51.27,59.26,33.61,35.51
"2016-01-23 21:40:00",219359,0.206,73.9,-6.112,93.8,0,0,856.3615,0,41.44,2.797,190,1.644,2.374,0,0,51.33,59.26,33.62,35.51
"2016-01-23 21:50:00",219360,0.056,55.83,-6.105,94,0,0,856.3605,0,41.48,2.797,191,1.65,2.375,0,0,51.27,59.26,33.61,35.51
"2016-01-23 22:00:00",219361,0.003,45.45,-6.087,95.2,0,0,856.4307,0,41.44,2.797,181,1.644,2.373,0.03033314,0,51.27,59.26,33.61,35.51
"2016-01-23 22:10:00",219362,0,0,-6.133,95.5,0,0,856.1611,0,41.44,2.797,174,1.637,2.369,0,0,51.27,59.26,33.61,35.51
"2016-01-23 22:20:00",219363,0,0,-6.148,97.2,0,0,856.1006,0,41.27,2.799,191,1.636,2.369,0,0,51.33,59.26,33.62,35.51
"2016-01-23 22:30:00",219364,0.017,84.1,-6.26,98,0,0,855.9903,0,41.37,2.799,191,1.643,2.375,0,0,51.33,59.26,33.62,35.51
"2016-01-23 22:40:00",219365,0.233,90,-6.326,99.4,0.007865073,0,855.9707,0,41.28,2.8,192,1.652,2.379,0,0,51.27,59.26,33.61,35.51
"2016-01-23 22:50:00",219366,0.186,66.03,-6.333,97.6,0.2202221,0,855.9655,0,41.25,2.8,190,1.651,2.379,0,0,51.33,59.26,33.62,35.51
"2016-01-23 23:00:00",219367,0.181,36.92,-6.326,96.4,0.2044966,0,855.9547,0,41.04,2.803,170,1.663,2.385,0,0,51.33,59.26,33.62,35.51
"2016-01-23 23:10:00",219368,0.258,62.73,-6.443,96.9,0.1769729,0,855.9514,0,41.31,2.8,179,1.666,2.392,0,0,51.27,59.26,33.61,35.51
"2016-01-23 23:20:00",219369,0.013,33.14,-6.359,97.4,0.03539366,0,855.8369,0,40.76,2.805,187,1.657,2.386,0,0,51.27,59.26,33.61,35.51
"2016-01-23 23:30:00",219370,0.059,325.7,-6.371,97,0.1376414,0,855.9536,0,41.24,2.801,189,1.669,2.384,0,0,51.33,59.26,33.62,35.51
"2016-01-23 23:40:00",219371,0.096,269.7,-6.504,99.1,0.2359584,0,855.6453,0,41.75,2.796,196,1.659,2.386,0,0,51.33,59.26,33.62,35.51
"2016-01-23 23:50:00",219372,0.043,41.66,-6.438,99.1,0.2359636,0,855.4415,0,42.3,2.79,197,1.662,2.392,0,0,51.27,59.26,33.61,35.51
